Location: Maiden
(35.5760°N, 81.2120°W)
Time: 02:16:19
(UTC-04:00)

Vanguard 2 - Pass Details

Date: 13 August 2020
Orbit: 553 x 2937 km, 32.9° (Epoch: 20 September)

Event Time Altitude Azimuth Distance (km) Brightness Sun altitude
Rises 22:55:43 0° 266° (W) 6,785 12.9 -28.3°
Reaches altitude 10° 23:00:23 10° 266° (W) 5,701 12.4 -29.0°
Maximum altitude 23:17:27 80° 183° (S) 2,329 9.7 -31.2°
Enters shadow 23:22:10 48° 105° (ESE) 2,538 9.7 -31.8°
Drops below altitude 10° 23:28:35 10° 98° (E) 3,905 - -32.6°
Sets 23:31:10 0° 97° (E) 4,623 - -32.9°
